カタログに戻る

SL-14 R/B

運用中LEO
NORAD 10096·ROCKET BODY·🇷🇺 Russia

打ち上げ Jun 24, 1977 から Plesetsk Cosmodrome

Loading…

次のパス (今後24時間)

TLE

最新Source: Space-Track

元期: Sep 14, 2026, 14:08 UTC

1 10096U 77055B   26257.58927668  .00000320  00000-0  33041-4 0  9993
2 10096  75.8313 112.9641 0041115 233.2716 126.4698 14.92212809664746

AllMySatでSL-14 R/Bをリアルタイム追跡

Download on the App Store